Terug naar catalogus

THORAD AGENA D DEB

ActiefSSO
NORAD 42516·DEBRIS·🇺🇸 United States

Gelanceerd Apr 8, 1970 vanaf Vandenberg Space Force Base

Loading…

Volgende Passages (komende 24 uur)

TLE

VerouderendSource: Space-Track

Epoch: Sep 10, 2026, 09:46 UTC

1 42516U 70025RW  26253.40698472  .00001515  00000-0  19612-2 0  9993
2 42516  99.6708 321.2876 0050940 337.8956  21.9989 13.63408869633601

Volg THORAD AGENA D DEB in realtime met AllMySat

Download on the App Store